Regional Weather Roundup
Issued by NWS

Home | Current Version | Previous Version | Text Only | Print | Product List | Glossary On
Versions: 1 2 3 4 5 6 7 8 9 10 11 12 13 14 15 16 17 18 19 20 21 22 23 24 25 26 27 28 29 30 31 32 33 34 35 36 37 38 39 40 41 42 43 44 45 46 47 48 49 50
596
ASUS44 KLIX 170805
RWRLA
LOUISIANA WEATHER ROUNDUP
NATIONAL WEATHER SERVICE NEW ORLEANS LA
300 AM CDT WED SEP 17 2014

NOTE: "FAIR" INDICATES FEW OR NO CLOUDS BELOW 12,000 FEET WITH NO
      SIGNIFICANT WEATHER AND/OR OBSTRUCTIONS TO VISIBILITY.
      SKY/WX - SKY CONDITION AND SIGNIFICANT WEATHER.
      TMP - AIR TEMPERATURE.    DP   - DEWPOINT TEMPERATURE.
      RH  - RELATIVE HUMIDITY.  PRES - PRESSURE.
      HX  - HEAT INDEX.         WCI  - WIND CHILL INDEX.

*  THESE STATIONS ARE NOT NWS OR FAA STATIONS AND ARE NOT UNDER
   NWS QUALITY CONTROL.

LAZ040-048-061>063-065-066-069-170900-
SOUTHEAST LOUISIANA

CITY           SKY/WX    TMP DP  RH WIND       PRES   REMARKS
N.O. AUDUBON     N/A     76  75  98 MISG        N/A
N.O. INTL ARPT CLOUDY    76  71  85 NW5       29.96S
N.O. LAKEFRONT CLOUDY    79  71  76 N6        29.96F
N.O. DOWNTOWN* FAIR      79  70  73 CALM      29.96S
SLIDELL        CLOUDY    73  70  90 NE5       29.96S
BATON ROUGE    CLOUDY    73  71  93 CALM      29.97F
BOOTHVILLE     CLOUDY    77  75  93 W6        29.96F
BELLE CHASSE   CLOUDY    75  72  90 CALM      29.96S
BOGALUSA*      FAIR      73  70  89 N3        29.98F FOG
GALLIANO*      NOT AVBL
NEW ROADS*     FAIR      73  72  98 CALM      29.98S FOG
GONZALES*      FAIR      71  71 100 CALM      29.97S
HAMMOND*       CLOUDY    73  70  88 CALM      29.98S
HOUMA*         CLOUDY    74  71  88 CALM      29.97S FOG
PORT FOURCHON* NOT AVBL

$$

LAZ041-044-053-054-170900-
SOUTHWEST LOUISIANA

CITY           SKY/WX    TMP DP  RH WIND       PRES   REMARKS
LAKE CHARLES   CLOUDY    75  74  96 CALM      29.96F
LAFAYETTE      CLOUDY    74  73  97 CALM      29.98F
PATTERSON      CLOUDY    73  72  94 CALM      30.00S
SALT POINT       N/A     76  74  93 CALM      29.97S
NEW IBERIA     CLOUDY    73  73 100 CALM      29.99S
CHENAULT AIRPK FOG       75  74  99 CALM      29.97F VSB 3/4

$$

LAZ027-028-170900-
CENTRAL LOUISIANA

CITY           SKY/WX    TMP DP  RH WIND       PRES   REMARKS
FORT POLK      CLOUDY    72  71  97 CALM      29.97F
ALEXANDRIA INT CLEAR     72  71  97 CALM      29.96F
ALEXANDRIA     PTCLDY    70  69  97 CALM      29.98F

$$

LAZ001-002-170900-
NORTHWEST LOUISIANA

CITY           SKY/WX    TMP DP  RH WIND       PRES   REMARKS
SHREVEPORT     CLOUDY    73  71  93 CALM      29.98F
BARKSDALE AFB  CLOUDY    71  70  96 SE2       29.98F
DTN SHREVEPORT MOCLDY    74  71  91 CALM      29.98F

$$

LAZ014-016-170900-
NORTHEAST LOUISIANA

CITY           SKY/WX    TMP DP  RH WIND       PRES   REMARKS
MONROE         CLOUDY    73  70  90 N3        30.00S
TALLULAH       MOCLDY    71  69  93 N3        29.97F

$$




USA.gov is the U.S. government's official web portal to all federal, state and local government web resources and services.